Showing default

SDA_1666, 65976

Orbit data source: Space-Track

SDA_1666, 65976 is a payload satellite owned by SDA (US) in LEO that was launched on Wed, 15 Oct 2025 UTC via an FALCON 9 launch vehicle from the Air Force Western Test Range (AFWTR). Payload-class satellites include a variety of spacecraft equipped with specific instruments for various scientific and technological missions. These include communications satellites like Starlink; space stations such as the ISS; scientific satellites like the Hubble; Earth observation satellites from companies like Planet Labs, Umbra, and HawkEye 360; GPS; miniature CubeSats for education and research; and military/defense satellites.

Loading next visibility...
Identifier
65976, 2025-230C
Orbit
LEO
Country
Flag of USUS
Related business
Manufacturer
LMSSD/TERRAN
Mission
Operational Defense Communications
Bus & Motor
LM-T1TL, Unknown motor
Mass
~400 kg wet, ~400 kg dry
Launch date (UTC)
2025-10-15 (8 months ago)
Launch vehicle
FALCON 9
Launch site
Air Force Western Test Range (AFWTR)
Object type
Payload
Rocket body
Debris
Shape & HBR
Box + 2 Pan, 1.8 m
Radar Cross Section
0.674 m², Large (>1 m²)

Expand to show TLE details & history
Last TLE update: 10 hours ago

TLE from 10 hours ago
0 SDA_1666
1 65976U 25230C   26171.43955788  .00000132  00000-0  11184-3 0  9995
2 65976  81.2983 208.9331 0001039 108.6369 251.4899 13.81916078 34243
Epoch: 2026-06-20T10:32Z
TLE epoch observation values (Epoch: 2026-06-20T10:32:57.800Z)
Latitude
-0.00007°
Longitude
142.0381°
Altitude
960.203 km
Speed
7.372 km/s
True Right ascension
13h 55m 43s
True Declination
0° 00' 00"
Sunlit
Object was in daylight at epoch
Visualization orbit readout
Latitude
Unknown
Longitude
Unknown
Altitude
Unknown
Speed
Unknown
Apparent Right ascension
Unknown
Apparent Declination
Unknown
Sunlit
N/A
Visualization observer readout
Local Sidereal Time
07:14:14
Azimuth
Unknown
Elevation
Unknown
Doppler factor
Unknown
Orbital elements
Apogee altitude
955.07 km
Perigee altitude
953.546 km
Semi-major axis
7,332.445 km
Eccentricity
0.0001
Inclination
81.2983°
RAAN
208.9331°
Arg. of periapsis
108.6369°
True anomaly
251.47861°
Mean anomaly
251.4899°
Eccentric anomaly
251.48426°
Mean motion
3.45677 °/min
Orbital period
104.14 mins
BSTAR
0.00011184
Loading maneuver chart data...
Computing Atmospheric mass density...
Loading historical data...
Loading historical data...
Loading historical data...
Loading historical data...
Loading historical data...
Loading historical data...
Loading historical data...

Documentation

Showing up to 5 results
|